LUCH 5A (SDCM/PRN 140)

Last updated on Nov. 21, 2019, 4:16 a.m. UTC

1 37951U 11074B   19324.37001102 -.00000044  00000-0  00000+0 0  9999
2 37951   2.7983 122.0728 0002736 110.3528 126.7892  1.00272114 29112
UTC
Height (km)
Latitude
Longitude
Inclination
Orbital Period
UTC large
Height (km)
Speed (km/s)
/
Latitude / Longitude
Inclination (degrees)
Orbital Period (minutes)
Azimuth
Elevation
Range (km)
Doppler Factor
iOS Compass Heading
iOS Angle

Next 30 passes for location: Hong Kong

Rise time Rise Azimuth (degrees) Set time Set Azimuth (degrees) Duration Max altitude (degrees)

No matching passes for this satellites